Location: Mesa Vista Observatory
(35.5777°N, 105.6987°W)
Time: 06:13:59
(UTC-06:00)

Tiros 1 - All Passes

Search period start: 26 September 2020 00:00
Search period end: 06 October 2020 00:00
Orbit: 630 x 664 km, 48.4° (Epoch: 26 September)

Date Brightness Start Highest point End Pass type
(mag) Time Alt. Az. Time Alt. Az. Time Alt. Az.
26 Sep - 00:23:52 10° W 00:27:07 18° SW 00:30:22 10° S night (unlit)
26 Sep - 14:33:40 10° S 14:37:20 23° SE 14:41:02 10° E daylight
26 Sep - 16:14:33 10° WSW 16:19:13 61° NNW 16:23:56 10° NE daylight
26 Sep - 17:58:31 10° WNW 18:02:09 21° NNW 18:05:49 10° NE daylight
26 Sep - 19:42:27 10° NW 19:45:43 18° N 19:49:00 10° NE visible
26 Sep - 21:24:32 10° NW 21:28:59 36° NNE 21:33:26 10° E visible
26 Sep - 23:06:41 10° WNW 23:11:18 48° SW 23:15:54 10° SSE visible
27 Sep - 14:58:31 10° SW 15:03:05 55° SE 15:07:43 10° ENE daylight
27 Sep - 16:41:13 10° W 16:45:28 33° NNW 16:49:48 10° NE daylight
27 Sep - 18:25:37 10° NW 18:28:48 17° N 18:32:01 10° NE daylight
27 Sep - 20:08:34 10° NW 20:12:21 23° NNE 20:16:09 10° ENE visible
27 Sep - 21:50:24 10° NW 21:55:13 70° NE 22:00:00 10° ESE visible
27 Sep - 23:33:33 10° W 23:37:02 20° SW 23:40:30 10° S night (unlit)
28 Sep - 13:43:47 10° S 13:47:15 21° SE 13:50:44 10° E daylight
28 Sep - 15:24:25 10° WSW 15:29:05 66° NW 15:33:49 10° NE daylight
28 Sep - 17:08:17 10° WNW 17:11:57 22° NNW 17:15:40 10° NE daylight
28 Sep - 18:52:18 10° NW 18:55:31 18° N 18:58:45 10° NE daylight
28 Sep - 20:34:26 10° NW 20:38:49 34° NNE 20:43:12 10° E visible
28 Sep - 22:16:31 10° WNW 22:21:11 52° SW 22:25:50 10° SE visible
29 Sep - 14:08:29 10° SSW 14:12:59 50° SE 14:17:33 10° ENE daylight
29 Sep - 15:51:01 10° W 15:55:18 35° NNW 15:59:40 10° NE daylight
29 Sep - 17:35:24 10° NW 17:38:36 18° N 17:41:49 10° NE daylight
29 Sep - 19:18:27 10° NW 19:22:10 22° NNE 19:25:53 10° ENE visible
29 Sep - 21:00:17 10° NW 21:05:03 65° NNE 21:09:50 10° ESE visible
29 Sep - 22:43:15 10° W 22:46:56 22° SW 22:50:36 10° S visible
30 Sep - 12:53:56 10° S 12:57:10 19° SE 13:00:26 10° E daylight
30 Sep - 14:34:17 10° WSW 14:38:57 72° NW 14:43:41 10° NE daylight
30 Sep - 16:18:03 10° WNW 16:21:46 23° NNW 16:25:32 10° NE daylight
30 Sep - 18:02:08 10° NW 18:05:19 17° N 18:08:30 10° NE daylight
30 Sep - 19:44:19 10° NW 19:48:38 33° NNE 19:52:59 10° E visible
30 Sep - 21:26:21 10° WNW 21:31:03 58° SW 21:35:46 10° SE visible
01 Oct - 13:18:27 10° SSW 13:22:53 45° SE 13:27:22 10° ENE daylight
01 Oct - 15:00:49 10° W 15:05:10 37° NNW 15:09:33 10° NE daylight
01 Oct - 16:45:11 10° NW 16:48:24 18° N 16:51:39 10° NE daylight
01 Oct - 18:28:20 10° NW 18:31:58 21° NNE 18:35:36 10° ENE daylight
01 Oct - 20:10:10 10° NW 20:14:55 60° NNE 20:19:39 10° ESE visible
01 Oct - 21:53:00 10° WNW 21:56:50 24° SW 22:00:41 10° S visible
02 Oct - 12:04:08 10° S 12:07:05 17° SE 12:10:05 10° E daylight
02 Oct - 13:44:10 10° WSW 13:48:49 78° NW 13:53:33 10° NE daylight
02 Oct - 15:27:49 10° WNW 15:31:35 23° NNW 15:35:24 10° NE daylight
02 Oct - 17:11:58 10° NW 17:15:06 17° N 17:18:16 10° NE daylight
02 Oct - 18:54:13 10° NW 18:58:28 31° NNE 19:02:44 10° E daylight
02 Oct - 20:36:13 10° WNW 20:40:56 63° SW 20:45:40 10° SE visible
03 Oct - 12:28:26 10° SSW 12:32:47 41° SE 12:37:11 10° ENE daylight
03 Oct - 14:10:37 10° W 14:15:00 39° NNW 14:19:26 10° NE daylight
03 Oct - 15:54:58 10° NW 15:58:12 18° N 16:01:28 10° NE daylight
03 Oct - 17:38:13 10° NW 17:41:46 20° NNE 17:45:21 10° ENE daylight
03 Oct - 19:20:04 10° NW 19:24:46 56° NNE 19:29:28 10° ESE visible
03 Oct - 21:02:45 10° WNW 21:06:44 26° SW 21:10:44 10° S visible
04 Oct - 11:14:21 10° SSE 11:17:01 15° SE 11:19:42 10° E daylight
04 Oct - 12:54:03 10° SW 12:58:41 84° NW 13:03:24 10° NE daylight
04 Oct - 14:37:35 10° WNW 14:41:24 24° NNW 14:45:16 10° NE daylight
04 Oct - 16:21:48 10° NW 16:24:54 17° N 16:28:01 10° NE daylight
04 Oct - 18:04:08 10° NW 18:08:18 29° NNE 18:12:29 10° E daylight
04 Oct - 19:46:03 10° WNW 19:50:48 69° SW 19:55:34 10° SE visible
04 Oct - 21:31:42 10° WSW 21:32:21 10° SW 21:32:59 10° SW visible
05 Oct - 11:38:26 10° SSW 11:42:41 37° SE 11:46:59 10° ENE daylight
05 Oct - 13:20:26 10° W 13:24:50 41° NNW 13:29:18 10° NE daylight
05 Oct - 15:04:45 10° NW 15:08:00 18° N 15:11:17 10° NE daylight
05 Oct - 16:48:06 10° NW 16:51:35 20° NNE 16:55:04 10° ENE daylight
05 Oct - 18:29:58 10° NW 18:34:36 52° NNE 18:39:17 10° ESE daylight
05 Oct - 20:12:31 10° WNW 20:16:38 29° SW 20:20:45 10° SSE visible
